Location: Dead Woman Crossing
(43.5369°N, 106.3228°W)
Time: 17:53:47
(UTC+00:00)

Tiangong - Visible Passes

Search period start: 22 January 2022 00:00
Search period end: 01 February 2022 00:00
Orbit: 383 x 386 km, 41.5° (Epoch: 22 January)

Date Brightness Start Highest point End Pass type
(mag) Time Alt. Az. Time Alt. Az. Time Alt. Az.
27 Jan 3.4 01:28:32 10° S 01:29:58 12° SSE 01:30:21 12° SE visible
28 Jan 2.8 02:03:50 10° SW 02:05:48 25° S 02:05:48 25° S visible
29 Jan 3.0 01:04:35 10° SSW 01:06:58 19° SSE 01:08:57 12° ESE visible
29 Jan 4.0 02:40:20 10° WSW 02:41:10 16° WSW 02:41:10 16° WSW visible
30 Jan 1.8 01:40:39 10° SW 01:43:39 39° SSE 01:44:15 35° SE visible
31 Jan 2.5 00:41:06 10° SW 00:43:53 28° SSE 00:46:41 10° E visible
31 Jan 2.4 02:17:20 10° WSW 02:19:30 37° WSW 02:19:30 37° WSW visible
